CZ-6A DEB, 61473

Orbit data source: Space-Track

CZ-6A DEB, 61473 is space debris in LEO originally from a launch on Tue, 06 Aug 2024 UTC launched from the Taiyaun Space Center, China (TSC). Debris objects in space refer to the collection of defunct objects orbiting the Earth. Examples of debris include non-operational satellites, rocket bodies, and fragments generated from explosions, collisions, or faulty payload assembly.

Loading next visibility...
Identifier
61473, 2024-140AAF
Orbit
LEO
Last TLE update
3 hours ago
Origin
Manufacturer
SAST
Mission
Spacecraft
Bus & Motor
Unknown
Mass
Unknown
Launch date (UTC)
2024-08-06 (11 months ago)
Launch vehicle
Unknown
Launch site
Taiyaun Space Center, China (TSC)
Object type
Payload
Rocket body
Debris
Shape & HBR
Unknown
Radar Cross Section
Small (<0.1 m²)

Expand to show TLE details & history

TLE from 3 hours ago
0 CZ-6A DEB
1 61473U 24140AAF 25190.56147249  .00116140  00000-0  31693-2 0  9994
2 61473  88.5834 293.1029 0088694 195.1633 164.6960 15.33069391 46246
Epoch: 2025-07-09T13:28Z
TLE epoch observation values (Epoch: 2025-07-09T13:28:31.223Z)
Latitude
Longitude
163.23247°
Altitude
528.48 km
Speed
7.566 km/s
True Right ascension
19h 32m 24s
True Declination
0° 00' 00"
Sunlit
Object was in full shadow at epoch
Visualization orbit readout
Latitude
81.06687°
Longitude
172.20585°
Altitude
503.831 km
Speed
7.606 km/s
Apparent Right ascension
17h 39m 27s
Apparent Declination
25° 21' 34"
Sunlit
Object is in daylight
Visualization observer readout
Local Sidereal Time
05:09:02
Azimuth
352.458° N
Elevation
-24.341°
Doppler factor
1
Orbital elements
Apogee altitude
524.135 km
Perigee altitude
402.774 km
Semi-major axis
6,841.592 km
Eccentricity
0.00887
Inclination
88.5834°
RAAN
293.1029°
Arg. of periapsis
195.1633°
True anomaly
Unknown
Mean anomaly
164.696°
Eccentric anomaly
Unknown
Mean motion
3.83537 °/min
Orbital period
93.86 mins
BSTAR
0.0031693
Loading maneuver chart data...
Loading SW <> Apogee altitude chart data...
Loading historical data...
Loading historical data...
Loading historical data...
Loading historical data...
Loading historical data...
Loading historical data...
Loading historical data...

CZ-6A DEB Visibility forecast

Observer location: undefined°, undefined°

Span
Click to sort rows by Start time (UTC) header in descending order
Start Az.
Max El. time (UTC)
Max El. Az.
Max El.
End time (UTC)
End Az.
5 mins2025-07-09 18:44:58.502Z27.517° NE2025-07-09 18:46:58.502Z73.879° E27.104°2025-07-09 18:49:58.502Z148.997° SSE
6 mins2025-07-10 06:49:58.502Z147.834° SSE2025-07-10 06:52:58.502Z88.412° E29.743°2025-07-10 06:55:58.502Z22.148° NNE
|